SCP
0 0 0 0 0 0 0 0 0 0 0 0 0 0 0 0 0 0 0 0 0 0 0 0 0 0 0 0 0 0 0 0 0 0 0 0 0 0 0 0 0 0 0 0 0 0 0 0 0
0 0 0 0 0 0 0 0 0 0 0 0 0 0 0 0 0 0 0 0 0 0 0 0 0 0 0 0 0 0 0 0 0 0 0 0 0 0 0 0 0 0 0 0 0 0 0 0 0
0 0 0 0 0 0 0 0 0 0 0 0 0 0 0 0 0 0 0 0 0 0 0 0 0 0 0 0 0 0 0 0 0 0 0 0 0 0 0 0 0 0 0 0 0 0 0 0 0
0 0 0 0 0 0 0 0 0 0 0 0 0 0 0 0 0 0 0 0 0 0 0 0 0 0 0 0 0 0 0 0 0 0 0 0 0 0 0 0 0 0 0 0 0 0 0 0 0
0 0 0 0 0 0 0 0 0 0 0 0 0 0 0 0 0 0 0 0 0 0 0 0 0 0 0 0 0 0 0 0 0 0 0 0 0 0 0 0 0 0 0 0 0 0 0 0 0
0 0 0 0 0 0 0 0 0 0 0 0 0 0 0 0 0 0 0 0 0 0 0 0 0 0 0 0 0 0 0 0 0 0 0 0 0 0 0 0 0 0 0 0 0 0 0 0 0
0 0 0 0 0 0 0 0 0 0 0 0 0 0 0 0 0 0 0 0 0 0 0 0 0 0 0 0 0 0 0 0 0 0 0 0 0 0 0 0 0 0 0 0 0 0 0 0 0
0 0 0 0 0 0 0 0 0 0 0 0 0 0 0 0 0 0 0 0 0 0 0 0 0 0 0 0 0 0 0 0 0 0 0 0 0 0 0 0 0 0 0 0 0 0 0 0 0
0 0 0 0 0 0 0 0 0 0 0 0 0 0 0 0 0 0 0 0 0 0 0 0 0 0 0 0 0 0 0 0 0 0 0 0 0 0 0 0 0 0 0 0 0 0 0 0 0
0 0 0 0 0 0 0 0 0 0 0 0 0 0 0 0 0 0 0 0 0 0 0 0 0 0 0 0 0 0 0 0 0 0 0 0 0 0 0 0 0 0 0 0 0 0 0 0 0
0 0 0 0 0 0 0 0 0 0 0 0 0 0 0 0 0 0 0 0 0 0 0 0 0 0 0 0 0 0 0 0 0 0 0 0 0 0 0 0 0 0 0 0 0 0 0 0 0
0 0 0 0 0 0 0 0 0 0 0 0 0 0 0 0 0 0 0 0 0 0 0 0 0 0 0 0 0 0 0 0 0 0 0 0 0 0 0 0 0 0 0 0 0 0 0 0 0
0 0 0 0 0 0 0 0 0 0 0 0 0 0 0 0 0 0 0 0 0 0 0 0 0 0 0 0 0 0 0 0 0 0 0 0 0 0 0 0 0 0 0 0 0 0 0 0 0
0 0 0 0 0 0 0 0 0 0 0 0 0 0 0 0 0 0 0 0 0 0 0 0 0 0 0 0 0 0 0 0 0 0 0 0 0 0 0 0 0 0 0 0 0 0 0 0 0
0 0 0 0 0 0 0 0 0 0 0 0 0 0 0 0 0 0 0 0 0 0 0 0 0 0 0 0 0 0 0 0 0 0 0 0 0 0 0 0 0 0 0 0 0 0 0 0 0
0 0 0 0 0 0 0 0 0 0 0 0 0 0 0 0 0 0 0 0 0 0 0 0 0 0 0 0 0 0 0 0 0 0 0 0 0 0 0 0 0 0 0 0 0 0 0 0 0
0 0 0 0 0 0 0 0 0 0 0 0 0 0 0 0 0 0 0 0 0 0 0 0 0 0 0 0 0 0 0 0 0 0 0 0 0 0 0 0 0 0 0 0 0 0 0 0 0
0 0 0 0 0 0 0 0 0 0 0 0 0 0 0 0 0 0 0 0 0 0 0 0 0 0 0 0 0 0 0 0 0 0 0 0 0 0 0 0 0 0 0 0 0 0 0 0 0
0 0 0 0 0 0 0 0 0 0 0 0 0 0 0 0 0 0 0 0 0 0 0 0 0 0 0 0 0 0 0 0 0 0 0 0 0 0 0 0 0 0 0 0 0 0 0 0 0
0 0 0 0 0 0 0 0 0 0 0 0 0 0 0 0 0 0 0 0 0 0 0 0 0 0 0 0 0 0 0 0 0 0 0 0 0 0 0 0 0 0 0 0 0 0 0 0 0
0 0 0 0 0 0 0 0 0 0 0 0 0 0 0 0 0 0 0 0 0 0 0 0 0 0 0 0 0 0 0 0 0 0 0 0 0 0 0 0 0 0 0 0 0 0 0 0 0
0 0 0 0 0 0 0 0 0 0 0 0 0 0 0 0 0 0 0 0 0 0 0 0 0 0 0 0 0 0 0 0 0 0 0 0 0 0 0 0 0 0 0 0 0 0 0 0 0
0 0 0 0 0 0 0 0 0 0 0 0 0 0 0 0 0 0 0 0 0 0 0 0 0 0 0 0 0 0 0 0 0 0 0 0 0 0 0 0 0 0 0 0 0 0 0 0 0
0 0 0 0 0 0 0 0 0 0 0 0 0 0 0 0 0 0 0 0 0 0 0 0 0 0 0 0 0 0 0 0 0 0 0 0 0 0 0 0 0 0 0 0 0 0 0 0 0
0 0 0 0 0 0 0 0 0 0 0 0 0 0 0 0 0 0 0 0 0 0 0 0 0 0 0 0 0 0 0 0 0 0 0 0 0 0 0 0 0 0 0 0 0 0 0 0 0
0 0 0 0 0 0 0 0 0 0 0 0 0 0 0 0 0 0 0 0 0 0 0 0 0 0 0 0 0 0 0 0 0 0 0 0 0 0 0 0 0 0 0 0 0 0 0 0 0
0 0 0 0 0 0 0 0 0 0 0 0 0 0 0 0 0 0 0 0 0 0 0 0 0 0 0 0 0 0 0 0 0 0 0 0 0 0 0 0 0 0 0 0 0 0 0 0 0
0 0 0 0 0 0 0 0 0 0 0 0 0 0 0 0 0 0 0 0 0 0 0 0 0 0 0 0 0 0 0 0 0 0 0 0 0 0 0 0 0 0 0 0 0 0 0 0 0
0 0 0 0 0 0 0 0 0 0 0 0 0 0 0 0 0 0 0 0 0 0 0 0 0 0 0 0 0 0 0 0 0 0 0 0 0 0 0 0 0 0 0 0 0 0 0 0 0
0 0 0 0 0 0 0 0 0 0 0 0 0 0 0 0 0 0 0 0 0 0 0 0 0 0 0 0 0 0 0 0 0 0 0 0 0 0 0 0 0 0 0 0 0 0 0 0 0
Wind_Speed
10 4 1 3 5 4 1 3 2 2 1 1 1 4 6 5 3 2 1 7 10 11 9 11 13 14 14 14 13 12 12 13 12 12 12 12 11 11 11 10 10 10 10 10 10 10 10 10 10
4 2 4 5 5 1 4 3 2 2 1 2 3 3 3 2 1 4 4 5 10 11 9 9 12 14 14 14 13 12 12 12 12 12 11 11 11 11 10 9 9 9 9 9 9 9 9 9 8
3 2 4 4 3 4 3 2 2 2 1 1 3 3 2 1 2 4 4 9 10 9 8 9 13 14 14 13 13 12 12 11 11 11 11 10 10 10 9 8 8 8 8 8 8 8 8 7 7
3 4 5 4 3 4 4 1 0 2 2 2 3 3 2 2 2 3 8 10 10 8 7 9 13 14 14 13 13 12 11 11 11 10 11 10 9 9 8 8 7 7 7 7 7 7 6 6 6
4 4 3 0 4 4 3 2 1 0 0 1 3 3 1 4 3 7 10 10 10 8 7 8 12 12 12 12 12 12 11 11 10 10 10 9 9 8 8 7 7 6 6 6 5 5 5 4 4
4 4 3 3 4 4 3 2 1 0 0 1 3 3 1 2 4 7 8 8 8 8 7 7 10 11 11 11 11 10 10 10 9 9 9 9 8 8 7 7 6 5 5 5 4 4 3 2 3
4 4 4 4 3 3 3 1 1 1 1 1 3 4 0 1 3 6 7 7 7 7 7 6 6 7 9 9 9 8 8 8 8 7 7 7 6 6 6 5 5 4 4 3 3 2 1 1 2
3 4 3 3 3 3 3 2 0 1 1 1 2 4 2 3 6 7 7 7 7 6 6 5 5 5 5 5 8 8 7 7 6 6 6 6 5 4 4 4 4 4 3 3 2 1 0 1 1
3 4 3 4 5 2 2 2 3 1 3 2 3 1 0 8 9 9 7 6 6 6 5 5 5 5 4 4 5 6 6 6 6 5 6 5 2 2 2 3 4 3 3 3 2 2 1 1 1
3 4 5 2 1 0 2 1 2 3 4 3 3 5 5 8 9 9 8 8 8 8 7 5 5 5 5 4 3 3 3 3 3 3 4 3 2 2 2 3 3 3 2 2 3 2 2 1 1
3 4 1 1 2 1 2 3 3 3 2 1 0 2 6 6 6 6 6 6 6 7 6 6 6 5 5 3 3 2 2 2 3 4 4 3 2 1 1 1 1 1 2 1 1 1 1 1 1
2 0 1 2 2 2 1 2 4 3 1 3 0 5 7 6 6 5 5 5 4 4 5 5 5 5 5 4 3 3 2 2 2 3 4 3 2 2 2 2 2 1 1 1 1 1 2 1 2
1 1 2 3 2 1 2 2 2 3 5 4 5 6 5 5 3 2 2 3 3 4 4 4 4 5 4 4 3 3 3 3 3 3 3 4 3 3 3 2 2 2 2 2 2 2 2 2 2
0 1 2 3 2 2 3 2 2 4 4 5 5 4 3 3 2 2 2 2 3 3 4 4 4 4 4 4 4 3 3 3 3 3 4 4 4 3 3 3 3 3 3 3 3 3 2 2 2
1 2 3 3 2 1 2 4 2 4 4 5 4 2 2 2 2 1 1 1 2 3 3 3 4 4 4 4 3 3 3 3 3 3 4 4 4 4 4 3 3 3 3 3 2 2 2 2 2
3 2 1 3 2 1 4 2 4 4 4 4 3 3 3 3 2 2 2 1 1 1 2 2 2 3 4 3 3 2 2 3 3 3 3 4 5 5 4 4 4 3 3 3 3 2 2 2 2
2 1 1 3 4 2 3 1 4 4 4 4 4 3 3 4 6 5 4 3 2 1 0 1 1 2 3 3 2 2 2 2 2 2 2 3 4 4 4 4 4 4 3 3 3 3 2 2 2
3 2 0 1 3 3 3 1 4 5 4 3 3 3 4 4 5 5 5 5 4 2 1 1 1 1 1 2 1 1 1 1 1 1 2 2 2 3 3 3 3 3 3 3 3 4 3 3 2
3 3 1 1 1 2 1 2 4 4 4 4 4 4 4 3 4 5 5 6 6 5 4 2 1 0 1 1 2 2 2 1 1 1 1 2 2 2 3 3 3 3 4 4 5 4 4 3 2
2 2 1 1 2 1 2 2 2 3 2 2 2 3 4 5 7 7 6 6 5 5 5 3 2 1 0 1 2 2 1 0 0 1 1 1 2 2 2 2 2 3 3 4 4 3 2 3 3
0 2 2 1 2 2 1 3 3 2 3 4 4 3 4 4 5 6 6 6 5 6 5 4 3 2 1 0 1 1 1 1 1 1 1 2 2 1 1 2 2 2 3 3 4 4 4 4 4
1 1 1 1 1 1 1 2 3 2 4 5 5 5 4 5 5 5 5 6 5 4 4 4 4 3 3 2 2 2 1 0 1 1 1 2 2 2 2 2 2 2 2 3 3 4 4 4 3
2 0 1 1 1 1 0 1 5 2 2 4 4 4 5 5 4 5 5 5 4 5 5 5 5 5 4 3 2 1 1 1 1 2 2 2 2 2 3 3 2 2 2 2 3 3 4 4 4
0 2 3 3 1 2 3 3 4 2 3 3 3 3 4 5 5 5 5 5 5 6 6 6 6 5 5 4 3 1 1 2 2 3 2 2 2 2 3 3 3 2 2 2 3 3 3 3 4
3 3 2 2 1 4 1 3 5 3 2 1 2 2 3 4 5 5 7 6 6 7 6 6 6 6 6 4 3 3 2 2 1 2 2 2 2 2 3 3 3 3 3 3 3 3 3 3 3
1 3 4 4 4 2 0 3 4 1 2 2 2 2 4 4 5 5 6 5 6 6 6 6 6 5 5 5 4 4 4 2 2 2 2 2 2 3 4 4 4 3 3 3 3 3 3 3 3
1 1 2 2 1 1 2 2 4 2 3 3 3 4 5 5 5 5 5 6 5 6 6 5 5 5 5 5 4 4 5 4 4 3 3 2 3 3 4 4 4 4 4 4 4 3 3 3 3
1 2 3 3 3 2 3 3 3 2 3 3 3 4 4 5 5 5 5 6 5 5 5 5 5 5 5 5 5 5 5 4 4 3 4 4 4 4 4 4 4 4 4 4 3 3 4 3 3
1 1 2 2 3 3 2 4 2 2 1 1 2 3 3 4 4 5 5 5 5 6 6 5 5 5 5 5 5 5 5 5 5 4 5 4 4 4 4 4 4 4 4 4 3 3 4 4 4
0 1 2 3 2 2 2 4 1 0 1 0 1 3 3 3 4 4 5 5 5 6 6 5 5 5 5 5 5 5 5 5 5 5 5 5 4 4 4 4 4 4 4 4 3 4 4 4 4
Wind_Direction
335 337 52 57 54 51 272 263 260 302 306 358 96 130 142 144 159 190 96 135 134 142 152 153 152 148 146 143 141 140 140 137 133 129 126 125 124 121 116 111 107 104 101 99 96 94 91 88 85
320 340 50 59 86 89 272 260 259 248 194 107 63 78 92 89 72 118 131 145 139 143 147 151 150 150 149 147 146 144 142 140 138 135 131 129 127 125 121 117 113 109 106 103 100 96 93 89 84
327 40 76 78 127 185 231 245 241 311 113 109 77 50 87 124 146 159 157 143 135 139 143 149 149 151 152 151 151 149 145 143 141 141 140 136 132 128 125 123 119 114 111 108 105 101 97 90 83
43 44 57 87 208 222 228 254 309 11 27 61 106 73 33 14 177 158 135 137 134 136 139 149 151 153 154 154 154 153 151 149 147 146 145 143 141 137 133 128 124 120 116 113 108 104 99 89 79
56 73 76 115 241 255 255 269 234 65 337 48 107 108 28 0 77 119 133 138 139 137 138 148 152 153 155 157 158 159 159 156 154 153 151 150 147 143 138 135 132 129 124 119 113 108 100 86 71
59 73 117 216 248 276 280 266 168 107 134 101 116 116 22 45 106 131 134 134 138 140 138 146 152 152 155 159 161 161 162 160 158 158 157 155 153 149 148 145 141 136 134 129 124 120 107 85 62
111 120 180 201 233 276 290 306 156 151 144 204 152 121 6 93 117 125 124 123 128 134 137 142 148 153 157 159 160 161 160 159 159 158 157 153 149 151 149 148 151 150 147 141 137 134 129 75 36
123 123 172 201 203 254 312 343 38 130 170 72 115 135 197 169 127 114 111 119 130 136 142 145 143 145 150 154 159 160 162 163 162 158 153 150 152 153 153 156 167 172 173 171 172 174 191 334 358
93 103 195 207 194 239 345 11 353 18 96 58 44 49 355 127 127 124 125 133 147 154 157 157 154 151 149 152 162 163 166 170 166 160 158 149 144 148 156 176 187 194 195 202 215 233 256 314 337
105 161 211 216 204 277 357 13 337 45 46 30 33 35 78 118 135 144 153 163 171 175 176 174 170 164 159 162 152 159 165 168 162 158 160 154 156 169 176 196 209 219 226 236 247 258 285 302 325
137 180 213 317 336 352 4 3 11 83 38 340 253 110 121 127 138 151 162 170 180 180 181 184 180 173 169 165 159 164 162 164 169 171 171 164 162 172 175 178 225 237 239 248 272 297 293 263 253
123 289 293 309 336 351 351 358 26 52 303 329 130 136 137 143 162 171 171 169 165 172 188 188 185 182 180 170 172 175 177 178 183 185 178 169 173 189 195 199 209 214 216 219 229 239 253 252 252
104 314 311 304 343 360 50 41 45 355 340 18 76 99 126 145 157 153 150 161 164 181 189 188 183 188 187 179 182 185 191 191 191 189 190 185 188 200 205 211 213 217 214 216 223 230 240 246 253
207 313 319 328 346 15 64 14 44 338 357 42 69 95 126 137 136 104 109 169 188 194 199 194 189 193 187 190 192 194 197 195 190 196 202 198 198 201 202 212 217 223 222 221 221 224 232 245 247
47 43 2 346 340 326 65 13 7 327 14 45 47 59 73 61 57 70 195 202 202 201 197 196 195 194 197 200 200 196 197 196 204 208 205 203 202 205 206 211 219 226 222 220 221 226 229 247 252
53 69 350 325 355 338 101 262 338 346 42 36 22 25 35 35 21 358 350 332 284 198 188 193 191 196 204 206 202 200 199 201 212 213 212 214 215 210 205 213 223 222 212 210 218 221 230 243 249
56 126 227 327 359 38 109 237 318 358 47 30 13 17 21 19 10 0 0 356 358 346 192 182 190 200 214 213 208 200 189 200 214 209 219 225 222 217 213 219 222 212 212 216 220 219 217 234 246
174 154 148 261 352 57 88 300 331 7 42 23 14 16 23 18 349 353 5 10 13 15 33 109 163 185 214 208 204 201 194 207 214 219 243 243 237 229 224 227 226 213 217 222 219 222 222 221 228
140 139 165 261 323 59 98 327 332 2 31 19 14 15 15 353 346 9 15 15 20 19 21 24 47 62 115 195 213 216 224 221 228 244 272 259 254 240 233 242 230 220 225 229 223 222 224 226 204
118 139 227 322 26 85 88 331 323 9 26 18 8 9 3 2 10 13 16 19 18 17 9 10 3 13 163 221 224 222 222 195 151 16 333 317 301 271 249 253 250 232 235 239 235 226 226 227 202
101 182 203 236 355 3 54 335 323 351 31 33 26 17 13 13 2 6 15 15 17 16 5 7 5 8 6 27 72 54 65 47 21 351 329 321 319 324 320 292 280 264 239 236 236 229 230 235 222
241 250 200 204 122 296 123 269 297 332 3 11 6 8 10 10 5 11 15 14 9 358 0 13 19 22 24 46 72 89 96 230 267 307 330 351 348 347 344 336 309 298 290 274 251 235 241 237 238
220 251 138 178 182 287 359 174 288 342 330 334 348 1 4 8 7 11 17 13 3 5 13 14 23 27 25 33 55 115 194 262 338 9 17 7 353 354 359 349 335 319 299 298 309 290 260 241 236
93 66 53 41 67 248 232 188 276 274 261 300 340 1 3 8 10 10 13 18 14 14 19 19 24 22 19 22 22 25 351 359 16 12 357 346 350 348 354 347 340 329 323 316 306 306 302 285 261
47 95 62 16 336 250 229 187 248 266 284 272 300 336 2 10 13 11 10 11 12 14 15 18 25 21 15 19 14 359 345 351 353 343 328 334 332 330 332 333 329 327 325 324 324 313 301 295 290
223 146 157 183 212 265 316 219 250 287 349 13 15 13 11 11 11 10 9 8 10 11 13 15 18 17 15 18 9 6 5 358 351 349 346 335 328 324 335 332 325 325 331 333 329 314 309 307 296
133 176 182 135 51 229 248 273 294 353 21 28 28 22 10 5 7 5 5 7 9 10 9 10 12 14 14 12 9 14 10 8 3 359 2 354 351 348 350 347 342 343 344 341 335 324 319 314 305
156 148 113 129 157 242 278 250 237 303 333 358 10 8 357 358 3 2 3 5 7 6 3 9 13 10 7 11 13 12 7 8 7 8 10 3 355 356 352 351 349 347 348 346 339 331 327 327 321
4 97 110 137 167 174 244 267 218 210 271 299 337 348 350 351 350 351 354 360 2 5 7 8 9 10 8 7 8 13 8 8 8 9 2 356 353 356 355 353 349 347 349 347 344 342 339 336 335
222 174 151 164 216 200 216 264 292 212 330 357 350 346 347 351 351 355 357 360 1 360 359 2 5 7 360 0 8 9 8 9 11 5 358 356 353 352 350 349 347 344 344 341 339 339 343 334 332